Cut Bank, MT

1:20 PM MDT on March 27, 2017 (GMT -0600)
Cut Bank Municipal

Weather History for KCTB - March, 2013

Change the Weather History Date:

Thursday, March 14, 2013

  Actual Average Record
Temperature  
Mean Temperature 36 °F 31 °F  
Max Temperature 52 °F 42 °F 69 °F (1910)
Min Temperature 20 °F 20 °F -20 °F (1949)
Degree Days  
Heating Degree Days 29 34  
Month to date heating degree days 483 509  
Since 1 July heating degree days 6222 6569  
Cooling Degree Days 0 0  
Month to date cooling degree days 0 0  
Year to date cooling degree days 0 0  
Moisture  
Dew Point 26 °F    
Average Humidity 75    
Maximum Humidity 100    
Minimum Humidity 50    
Precipitation  
Precipitation 0.00 in 0.01 in 0.38 in (1942)
Month to date precipitation 0.02 0.19  
Year to date precipitation 0.75 0.60  
Snow  
Snow 0.00 in - - ()
Snow Depth 0.00 in    
Sea Level Pressure  
Sea Level Pressure 30.03 in    
Wind  
Wind Speed 11 mph (NNE)    
Max Wind Speed 24 mph    
Max Gust Speed 26 mph    
Visibility 7 miles    
Events Fog    
T = Trace of Precipitation, MM = Missing Value Source: NWS Daily Summary

Daily Weather History Graph

Daily Weather History Graph

Search for Another Location

Airport or City:

Trip Planner

Search our weather history database for the weather conditions in past years. The results will help you decide how hot, cold, wet, or windy it might be!

Date:

Astronomy

Mar. 14, 2013 Rise Set
Actual Time 7:44 AM MDT 7:33 PM MDT
Civil Twilight 7:12 AM MDT 8:05 PM MDT
Nautical Twilight 6:36 AM MDT 8:41 PM MDT
Astronomical Twilight 5:59 AM MDT 9:19 PM MDT
Moon 8:42 AM MDT (3/14) 11:14 PM MDT (3/14)
Length of Visible Light 12h 52m
Length of Day
11h 49m
Waxing Crescent, 9% of the Moon is Illuminated
Mar 14
Waxing Crescent
Mar 19
First Quarter
Mar 27
Full
Apr 2
Last Quarter
Apr 10
New

Hourly Weather History & Observations

Time (MDT) Temp. Windchill Dew Point Humidity Pressure Visibility Wind Dir Wind Speed Gust Speed Precip Events Conditions
12:56 AM 39.0 °F 32.3 °F 28.9 °F 67% 30.08 in 10.0 mi WSW 10.4 mph - N/A   Clear
1:56 AM 39.9 °F 32.9 °F 30.0 °F 68% 30.05 in 10.0 mi WSW 11.5 mph - N/A   Partly Cloudy
2:56 AM 41.0 °F 33.1 °F 30.0 °F 65% 30.06 in 10.0 mi WSW 15.0 mph - N/A   Clear
3:56 AM 42.1 °F 34.9 °F 30.0 °F 62% 30.03 in 10.0 mi SSW 13.8 mph - N/A   Clear
4:56 AM 45.0 °F 38.2 °F 32.0 °F 60% 30.01 in 10.0 mi WSW 15.0 mph - N/A   Partly Cloudy
5:56 AM 44.1 °F 37.7 °F 32.0 °F 63% 30.03 in 10.0 mi SW 12.7 mph - N/A   Clear
6:56 AM 43.0 °F 36.0 °F 32.0 °F 65% 30.03 in 10.0 mi SW 13.8 mph - N/A   Clear
7:56 AM 41.0 °F 35.8 °F 30.9 °F 67% 30.05 in 10.0 mi WSW 8.1 mph - N/A   Clear
8:56 AM 46.0 °F 40.2 °F 33.1 °F 61% 30.05 in 10.0 mi WSW 12.7 mph - N/A   Clear
9:56 AM 52.0 °F - 34.0 °F 50% 30.05 in 10.0 mi West 10.4 mph - N/A   Clear
10:20 AM 35.6 °F 24.8 °F 30.2 °F 81% 30.07 in 10.0 mi North 19.6 mph - N/A   Clear
10:43 AM 32.0 °F 19.5 °F 28.4 °F 87% 30.07 in 6.0 mi North 21.9 mph - N/A   Scattered Clouds
10:51 AM 32.0 °F 19.8 °F 28.4 °F 87% 30.07 in 6.0 mi North 20.7 mph - N/A   Mostly Cloudy
10:56 AM 32.0 °F 19.8 °F 28.0 °F 85% 30.13 in 6.0 mi North 20.7 mph - N/A   Mostly Cloudy
11:56 AM 32.0 °F 22.1 °F 27.0 °F 82% 30.13 in 6.0 mi North 13.8 mph - N/A   Haze
12:22 PM 35.6 °F 25.9 °F 28.4 °F 75% 30.07 in 7.0 mi North 16.1 mph - N/A   Mostly Cloudy
12:56 PM 30.9 °F 19.4 °F 26.1 °F 82% 30.15 in 7.0 mi North 17.3 mph - N/A   Overcast
1:56 PM 30.9 °F 21.2 °F 26.1 °F 82% 30.13 in 7.0 mi North 12.7 mph - N/A   Overcast
2:25 PM 33.8 °F 24.8 °F 26.6 °F 75% 30.05 in 10.0 mi North 12.7 mph - N/A   Scattered Clouds
2:56 PM 33.1 °F 23.4 °F 26.1 °F 75% 30.11 in 9.0 mi North 13.8 mph - N/A   Mostly Cloudy
3:56 PM 33.1 °F 23.4 °F 26.1 °F 75% 30.09 in 10.0 mi North 13.8 mph - N/A   Clear
4:56 PM 30.9 °F 23.5 °F 25.0 °F 79% 30.06 in 10.0 mi NE 8.1 mph - N/A   Clear
5:56 PM 32.0 °F 23.6 °F 25.0 °F 75% 30.04 in 10.0 mi East 10.4 mph - N/A   Partly Cloudy
6:56 PM 26.1 °F 17.6 °F 21.9 °F 84% 30.02 in 9.0 mi East 8.1 mph - N/A   Clear
7:56 PM 24.1 °F 19.7 °F 21.0 °F 88% 30.03 in 9.0 mi Variable 3.5 mph - N/A   Clear
8:56 PM 21.9 °F 15.7 °F 19.9 °F 92% 30.01 in 8.0 mi NE 4.6 mph - N/A   Clear
9:56 PM 21.0 °F 16.2 °F 18.0 °F 88% 29.97 in 8.0 mi East 3.5 mph - N/A   Unknown
10:56 PM 21.0 °F 13.4 °F 19.0 °F 92% 30.01 in 4.0 mi East 5.8 mph - N/A   Partly Cloudy
10:58 PM 19.4 °F 9.5 °F 19.4 °F 100% 29.90 in 1.5 mi ENE 8.1 mph - N/A   Partly Cloudy
11:00 PM 21.2 °F 13.6 °F 19.4 °F 93% 29.90 in 0.8 mi East 5.8 mph - N/A   Mist
11:10 PM 21.2 °F 14.9 °F 19.4 °F 93% 29.89 in 0.2 mi East 4.6 mph - N/A Fog Light Freezing Fog
11:35 PM 23.0 °F 18.4 °F 21.2 °F 93% 29.89 in 0.5 mi ENE 3.5 mph - N/A Fog Light Freezing Fog
11:46 PM 23.0 °F 17.0 °F 21.2 °F 93% 29.89 in 0.2 mi ENE 4.6 mph - N/A Fog Light Freezing Fog
11:56 PM 23.0 °F - 23.0 °F 100% 30.00 in 0.5 mi Calm Calm - N/A Fog Light Freezing Fog